Preview of NWS' New Version of Forecast
This preview is not operational and should not be used for support decisions.

Regional Weather Roundup (RWR)

Issued by National Weather Service (NWS)

                            
351 
ASUS42 KTBW 261316
RWRFL 
FLORIDA REGIONAL WEATHER ROUNDUP
NATIONAL WEATHER SERVICE TAMPA BAY RUSKIN FL
900 AM EDT TUE MAR 26 2019

NOTE: "FAIR" INDICATES FEW OR NO CLOUDS BELOW 12,000 FEET WITH NO
SIGNIFICANT WEATHER AND/OR OBSTRUCTIONS TO VISIBILITY.

FLZ001>010-012>015-112-114-115-261400-
PANHANDLE FLORIDA
  
CITY           SKY/WX    TMP DP  RH WIND       PRES   REMARKS
PENSACOLA      FAIR      56  51  84 N14       30.12R                  
PENSACOLA NAS  FAIR      56  51  84 N9        30.12R                  
MILTON NAS     FAIR      54  50  86 N8        30.12R                  
CRESTVIEW      FAIR      54  50  86 N8        30.12R                  
DUKE FIELD     FAIR      55  51  89 N9        30.10R                  
VALPARAISO     FAIR      56  51  82 N9        30.09R                  
MARY ESTHER    SUNNY     56  50  82 N12       30.09R                  
PANAMA CITY    FAIR      58  54  86 NW10      30.07R                  
TYNDALL AFB    FAIR      60  55  82 N14       30.07R                  
APALACHICOLA   FAIR      61  56  83 N8        30.03F                  

STATION/POSITION SKY/WX   TEMP    WIND        PRES    WAVE   SWELL
                          AIR SEA DIR/SP/G            HT/PER HT/PER
                          (F)     (DEG/KT/KT) (MB)    (FT/S) (FT/S)
30.1N   87.6W                                 1020.4R   3/ 3
29.2N   88.2W                     360/ 16/ 17 1021.1R   4/ 5
PANAMA CITY BEAC           57 66              1018.6R
TOWER C                    63     340/ 15/ 16 1017.6R

$$
FLZ011-016>038-118-127-128-134-139-239-261400-
NORTH FLORIDA
  
CITY           SKY/WX    TMP DP  RH WIND       PRES   REMARKS
MARIANNA       FAIR      58  56  93 NW8       30.07R                  
TALLAHASSEE    FAIR      59  59 100 NW7       30.04S                  
PERRY          FOG       60  59  97 CALM      30.05R VSB 1/4          
LIVE OAK       FOG       59  59 100 CALM      30.03R VSB 1/2          
CROSS CITY     FAIR      62  62  99 NW6       30.03S FOG              
LAKE CITY      CLOUDY    59  59 100 W6        30.03R FOG              
GAINESVILLE    FAIR      67  61  81 W8        30.05S                  
WILLISTON        N/A    N/A N/A N/A MISG        N/A                   
PALATKA        FAIR     N/A N/A N/A NW6       30.02S                  
MAYPORT NAS    FAIR      64  59  83 W8        30.00R                  
JACKSONVILLE   FAIR      63  59  87 W9        30.00R                  
JAX NAS        FAIR      63  58  83 W9        30.02R                  
JAX CECIL      CLOUDY   N/A N/A N/A VRB5      30.02R FOG              
FERNANDINA BEA FAIR      62  58  87 W9        30.01R                  
ST AUGUSTINE   FAIR      64  60  87 W10       30.02R                  
PALM COAST     SUNNY     64  61  88 W5        30.02R                  

STATION/POSITION SKY/WX   TEMP    WIND        PRES    WAVE   SWELL
                          AIR SEA DIR/SP/G            HT/PER HT/PER
                          (F)     (DEG/KT/KT) (MB)    (FT/S) (FT/S)
SHELL POINT      NOT AVBL
KEATON BEACH               65     310/  6/  8 1017.4R
CEDAR KEY                  67     290/  6/  8 1016.6R
FERNANDINA                 61 66              1016.5R
30.7N   81.3W                 64                N/A     1/ 2
MAYPORT                    63 66              1016.0R
31.4N   80.9W              60 62  310/ 14/ 17 1015.4R   2/ 3
ST AUGUSTINE               61 63  270/  6/  8 1016.1R

$$
FLZ040-043>046-052-053-057-058-063-144-261400-
INTERIOR CENTRAL FLORIDA
  
CITY           SKY/WX    TMP DP  RH WIND       PRES   REMARKS
OCALA          FAIR      61  60  97 CALM      30.04R                  
LEESBURG       FAIR      64  62  93 W5        30.04S                  
SANFORD        FAIR      67  63  87 W8        30.02F                  
ORLANDO EXEC   FAIR      68  61  78 NW10      30.03S                  
ORLANDO INTL   FAIR      68  60  75 NW7       30.03S                  
KISSIMMEE      FAIR      69  63  81 NW9       30.04S                  
WINTER HAVEN   FAIR      68  66  93 NW8       30.05R                  
LAKELAND       PTSUNNY   66  64  94 NW8       30.04S                  
BARTOW         MOSUNNY   68  64  88 NW7       30.03S                  
SEBRING        CLOUDY    67  65  95 NW5       30.04R                  
OKEECHOBEE     CLOUDY    63  61  94 CALM      30.03S FOG              

$$
FLZ041-047-054-059-064-141-147-261400-
EAST CENTRAL FLORIDA
  
CITY           SKY/WX    TMP DP  RH WIND       PRES   REMARKS
ORMOND BEACH   SUNNY     61  61 100 W7        30.02R                  
DAYTONA BEACH  FAIR      65  62  90 W8        30.01S                  
DELAND         FAIR      64  59  82 W7        30.02S                  
NEW SMYRNA BEA SUNNY     66  59  77 W10       30.02S                  
JFK SPACE CTR  FAIR     N/A N/A N/A NW10        N/A                   
TITUSVILLE     SUNNY     68  66  94 NW7       30.02S                  
CAPE CANAVERAL FAIR      68  61  76 NW13      30.00S                  
PATRICK AFB    SUNNY     66  63  88 NW9       30.03R                  
MELBOURNE      FAIR      68  63  84 NW13      30.02S                  
VERO BEACH     PTSUNNY   66  64  93 NW9       30.03S                  
FT PIERCE      FAIR      67  63  87 NW9       30.03R                  
STUART         PTSUNNY   70  61  73 NW6       30.05R                  

STATION/POSITION SKY/WX   TEMP    WIND        PRES    WAVE   SWELL
                          AIR SEA DIR/SP/G            HT/PER HT/PER
                          (F)     (DEG/KT/KT) (MB)    (FT/S) (FT/S)
28.5N   80.2W              70     300/ 19/ 23 1016.5R   3/ 4   2/ 9
28.9N   78.5W              73 74  300/ 16/ 19 1015.9R   5/ 5   2/10
TRIDENT PIER               67 70              1017.4R
28.4N   80.5W                 69                N/A     1/11
27.5N   80.2W                 72                N/A     1/10

$$
FLZ050-056-061-142-242-148-248-149-249-151-251-155-255-
160-260-261400-
WEST CENTRAL FLORIDA
  
CITY           SKY/WX    TMP DP  RH WIND       PRES   REMARKS
CRYSTAL RIVER  FAIR      63  59  88 CALM      30.04R                  
INVERNESS      FAIR      61  61 100 CALM      30.04S                  
BROOKSVILLE    FAIR      65  64  97 W3        30.05S                  
CLEARWATER AIR FAIR      68  64  88 NW7       30.05R                  
ST PETE CLEARW FAIR      69  65  86 NW7       30.04S                  
TAMPA INTL     FAIR      69  65  86 N8        30.05R                  
TAMPA EXEC     FAIR      66  64  94 NW3       30.05S                  
PLANT CITY     PTSUNNY   70  68  94 NW5       30.06S                  
MACDILL AFB    FAIR      70  64  82 NW8       30.04R                  
PETER O KNIGHT FAIR      70  70 100 NW7       30.05S                  
ST PETERSBURG  FAIR      70  65  84 N10       30.03R                  
SARASOTA       FAIR      71  66  84 NW7       30.03R                  
VENICE         FAIR      73  70  88 NW8       30.05R                  

STATION/POSITION SKY/WX   TEMP    WIND        PRES    WAVE   SWELL
                          AIR SEA DIR/SP/G            HT/PER HT/PER
                          (F)     (DEG/KT/KT) (MB)    (FT/S) (FT/S)
27.3N   84.2W                 73                N/A     2/ 3
CLEARWATER BEACH           69 72              1017.5R
MIDDLE TAMPA BAY           69                 1017.4R
VENICE           NOT AVBL

$$
FLZ066-069-070-075>078-162-262-165-265-261400-
SOUTHWEST FLORIDA AND KEYS
  
CITY           SKY/WX    TMP DP  RH WIND       PRES   REMARKS
PUNTA GORDA    PTSUNNY   69  66  90 N3        30.06R                  
FT MYERS       CLOUDY    69  64  84 NW3       30.04R                  
SOUTHWEST INTL PTSUNNY   69  63  81 CALM      30.05R                  
NAPLES         FAIR      70  65  84 CALM      30.04R                  
MARCO ISLAND   PTSUNNY   68  64  87 N3        30.06R                  
IMMOKALEE      FAIR      70  63  78 CALM      30.03R                  
MARATHON       FAIR      78  65  63 N6        30.04R                  
KEY WEST NAS   FAIR      75  71  87 N7        30.04R                  
KEY WEST INTL  FAIR      76  71  85 N7        30.04S                  

STATION/POSITION SKY/WX   TEMP    WIND        PRES    WAVE   SWELL
                          AIR SEA DIR/SP/G            HT/PER HT/PER
                          (F)     (DEG/KT/KT) (MB)    (FT/S) (FT/S)
NAPLES                     69 74              1017.3R
DRY TORTUGAS               76     360/  5/  6 1017.6R
SAND KEY                   74                 1017.4R
SOMBRERO KEY               74                 1016.7R

$$
FLZ067-068-071>074-168-172>174-261400-
SOUTHEAST FLORIDA 
  
CITY           SKY/WX    TMP DP  RH WIND       PRES   REMARKS
W PALM BEACH   FAIR      71  61  70 NW8       30.03R                  
BOCA RATON     SUNNY     72  64  78 N7        30.03R                  
FT LAUDER-EXEC FAIR      71  64  78 NW7       30.03R                  
FT LAUDERDALE  FAIR      72  64  76 NW9       30.02R                  
POMPANO BEACH  FAIR      72  65  78 NW8       30.03R                  
PEMBROKE PINES PTSUNNY   70  64  81 NW7       30.04R                  
OPA LOCKA      FAIR      72  64  76 NW7       30.04R                  
MIAMI          FAIR      71  63  75 VRB5      30.04R                  
WEST KENDALL   FAIR      72  65  78 NW6       30.03R                  
HOMESTEAD      FAIR      70  64  80 NW7       30.03R                  

STATION/POSITION SKY/WX   TEMP    WIND        PRES    WAVE   SWELL
                          AIR SEA DIR/SP/G            HT/PER HT/PER
                          (F)     (DEG/KT/KT) (MB)    (FT/S) (FT/S)
PORT EVERGLADES            70     320/  7/ 10 1016.4R
VIRGINIA KEY               74 75              1016.1R
LAKE WORTH                 71 77              1017.8R
SETTLEMENT POINT           76     290/ 14/ 15 1016.5R

$$